Regional Weather Roundup
Issued by NWS State College, PA

Home | Current Version | Previous Version | Graphics & Text | Print | Product List | Glossary Off
Versions: 1 2 3 4 5 6 7 8 9 10 11 12 13 14 15 16 17 18 19 20 21 22 23 24 25 26 27 28 29 30 31 32 33 34 35 36 37 38 39 40 41 42 43 44 45 46 47 48 49 50

000
ASUS41 KCTP 251710
RWRCTP

REGIONAL WEATHER ROUNDUP
NATIONAL WEATHER SERVICE STATE COLLEGE PA
100 PM EDT TUE APR 25 2017

Note: "fair" indicates few or no clouds below 12,000 feet with no
significant weather and/or obstructions to visibility.

* = STATION THAT DOES NOT REPORT PRECIPITATION /E.G. RAIN...SNOW...ETC/
    THUNDER OR FOG.

PAZ002>004-007>009-013>016-020>023-029>032-251800-
WESTERN PENNSYLVANIA

CITY           SKY/WX    TMP DP  RH WIND       PRES   REMARKS
ERIE           CLOUDY    64  54  69 SE9       29.88F
MEADVILLE      MOSUNNY   61  53  75 VRB6      29.89F
FRANKLIN*      MOSUNNY   59  48  67 E9        29.91F
NEW CASTLE     PTSUNNY   64  54  69 VRB7      29.88F
BEAVER COUNTY  PTSUNNY   59  52  77 SE6       29.88F
BUTLER*        MOSUNNY   59  52  77 E13       29.89F
PITTSBURGH INT CLOUDY    59  52  77 E8        29.87F
PITTSBURGH     PTSUNNY   63  51  65 E12       29.86F
INDIANA*       PTSUNNY   61  52  72 E8G17     29.91F
LATROBE        LGT RAIN  61  52  72 NE12      29.88F
WASHINGTON CO* CLOUDY    59  52  77 E10G16    29.88S
$$

PAZ004>006-010>012-017>019-024>028-033>037-041-042-045-046-049>053-251800-
CENTRAL PENNSYLVANIA

CITY           SKY/WX    TMP DP  RH WIND       PRES   REMARKS
BRADFORD       MOSUNNY   60  52  74 E7        29.94F
DUBOIS         CLOUDY    63  50  62 E12       29.90F
CLEARFIELD     CLOUDY    60  50  69 E13G18    29.93F
JOHNSTOWN      CLOUDY    57  50  77 E10       29.88F
ALTOONA        CLOUDY    55  50  83 NE9       29.92F
STATE COLLEGE  CLOUDY    55  50  82 E7        29.95F
WILLIAMSPORT   CLOUDY    60  50  69 E13       29.98F
SELINSGROVE    LGT RAIN  57  51  80 NE6       29.98F
FT INDIANTOWN  CLOUDY    56  56  98 NE10G17   29.94F
CAPITAL CITY   CLOUDY    56  50  80 NE14      29.93F
HARRISBURG     CLOUDY    56  52  86 VRB7G18   29.92F
YORK           CLOUDY    55  53  93 E12G18    29.90F
$$

PAZ038>040-043-044-047-048-054-055-060>062-067>071-251800-
EASTERN PENNSYLVANIA

CITY           SKY/WX    TMP DP  RH WIND       PRES   REMARKS
SCRANTON       CLOUDY    55  48  77 NE13G21   30.02F
MOUNT POCONO   CLOUDY    48  48 100 E17G24    30.02F
ALLENTOWN      CLOUDY    57  50  77 E15       30.00F
QUAKERTOWN*    CLOUDY    54  52  94 E10G17    29.99F
READING        CLOUDY    57  53  86 NE9       29.95F
LANCASTER      LGT RAIN  56  54  93 NE17G25   29.92F
COATESVILLE    LGT RAIN  54  54 100 NE13G22   29.93F
POTTSTOWN      CLOUDY    55  51  86 NE14G23   29.97F
BLUE BELL      CLOUDY    54  52  94 NE15G22   29.97F
DOYLESTOWN     LGT RAIN  53  53 100 NE9       29.97F
WILLOW GROVE   NOT AVBL
NORTH PHILA    CLOUDY    56  54  93 NE20      29.97F
PHILADELPHIA   LGT RAIN  56  53  90 NE21G28   29.93F FOG
$$



USA.gov is the U.S. government's official web portal to all federal, state and local government web resources and services.